Weather in Novodmitrovka

Ukraine / Kherson District     47°21′41″N   33°21′03″E
temp.,
°C
wind,
m/s
gust,
m/s
humid.,
%
clouds,
%
prec.,
mm/h
press.,
hPa
HPBL,
m
27 october, wed
wed2700:00+3sse35750 0.0 103078
03:00+2se33830 0.0 102930
06:00+2ese22840 0.0 102816
09:00+5ese22680 0.0 1028115
12:00+10s22500 0.0 1027723
15:00+12wsw11410 0.0 1025999
18:00+8nw22490 0.0 102511
21:00+7ene01538 0.0 102610
28 october, thu
thu2800:00+8sw225267 0.0 102625
03:00+5w22755 0.0 102612
06:00+5w228822 0.0 102510
09:00+7nw23736 0.0 1027119
12:00+13wnw334650 0.0 1026614
15:00+15wnw45405 0.0 10241118
18:00+12wnw335488 0.0 102441
21:00+10wnw346369 0.0 102461
29 october, fri
fri2900:00+11wnw3565100 0.0 1025125
03:00+11n356694 0.0 1024126
06:00+11nne367783 0.0 1025169
09:00+11ne36805 0.0 1026235
12:00+15ne44560 0.0 1027964
15:00+16ne45460 0.0 10261319
18:00+12e34600 0.0 102750
21:00+10ene33690 0.0 102835
30 october, sat
sat3000:00+8e35720 0.0 102971
03:00+7e35750 0.0 102973
06:00+6e35770 0.0 103069
09:00+9e48730 0.0 1031230
12:00+14e67520 0.0 10301116
15:00+15e67430 0.0 10291473
18:00+11ene47600 0.0 1029106
21:00+9ese34710 0.0 103059
31 october, sun
sun3100:00+7e37790 0.0 1030127
03:00+7ene48780 0.0 1029124
05:00+6ene410840 0.0 1028177
08:00+8ene612730 0.0 1028425
11:00+14e79510 0.0 1026819
14:00+16e68400 0.0 10241227
17:00+12e45532 0.0 102370
20:00+9e366657 0.0 1023103